SKW6391 KSMF-KLAX

Flight info

Callsign SKW6391
Flight time 1h 4m
Altitude 35000
Route FTHIL3 FRA REBRG IRNMN2
Aircraft CRJ7/M-SDFGIRWY/S

Departure

Time 2026-05-05 20:11
Airport Sacramento International Airport (KSMF)

Arrival

Time 2026-05-05 21:15
Airport Los Angeles International Airport (KLAX)
Time Latitude Longitude Altitude Speed Heading
2026-05-05 20:00 38.69339 -121.58590 21 ft 0 kts 251°
2026-05-05 20:03 38.69341 -121.58583 21 ft 4 kts 251°
2026-05-05 20:03 38.69348 -121.58555 22 ft 4 kts 256°
2026-05-05 20:03 38.69348 -121.58523 21 ft 4 kts 292°
2026-05-05 20:03 38.69331 -121.58502 24 ft 4 kts 340°
2026-05-05 20:04 38.69304 -121.58497 21 ft 4 kts 360°
2026-05-05 20:04 38.69299 -121.58497 21 ft 1 kts
2026-05-05 20:05 38.69303 -121.58497 21 ft 2 kts
2026-05-05 20:06 38.69319 -121.58497 25 ft 5 kts
2026-05-05 20:06 38.69368 -121.58483 22 ft 9 kts 35°
2026-05-05 20:06 38.69395 -121.58395 21 ft 12 kts 82°
2026-05-05 20:06 38.69429 -121.58301 21 ft 12 kts 26°
2026-05-05 20:07 38.69522 -121.58290 21 ft 14 kts 359°
2026-05-05 20:07 38.69625 -121.58291 21 ft 15 kts 359°
2026-05-05 20:07 38.69730 -121.58292 21 ft 15 kts 359°
2026-05-05 20:07 38.69872 -121.58288 21 ft 16 kts
2026-05-05 20:08 38.69946 -121.58287 21 ft 16 kts
2026-05-05 20:08 38.70057 -121.58284 21 ft 16 kts
2026-05-05 20:08 38.70171 -121.58281 21 ft 16 kts
2026-05-05 20:08 38.70286 -121.58278 21 ft 17 kts
2026-05-05 20:09 38.70404 -121.58275 21 ft 17 kts
2026-05-05 20:09 38.70522 -121.58272 21 ft 17 kts
2026-05-05 20:09 38.70643 -121.58267 21 ft 17 kts 12°
2026-05-05 20:09 38.70702 -121.58149 21 ft 17 kts 89°
2026-05-05 20:10 38.70664 -121.58017 23 ft 17 kts 154°
2026-05-05 20:10 38.70453 -121.58005 22 ft 56 kts 180°
2026-05-05 20:10 38.69868 -121.58015 21 ft 110 kts 180°
2026-05-05 20:10 38.68956 -121.58031 27 ft 148 kts 181°
2026-05-05 20:11 38.67930 -121.58055 439 ft 147 kts 181°
2026-05-05 20:11 38.66900 -121.57931 812 ft 155 kts 161°
2026-05-05 20:11 38.66130 -121.56959 1052 ft 174 kts 110°
2026-05-05 20:11 38.65727 -121.55335 1224 ft 207 kts 109°
2026-05-05 20:12 38.65161 -121.53541 1684 ft 228 kts 116°
2026-05-05 20:12 38.64372 -121.51702 2215 ft 244 kts 122°
2026-05-05 20:12 38.63405 -121.49842 2809 ft 258 kts 124°
2026-05-05 20:12 38.62375 -121.47931 3554 ft 263 kts 123°
2026-05-05 20:13 38.61327 -121.45987 4339 ft 267 kts 123°
2026-05-05 20:13 38.60265 -121.44022 5114 ft 271 kts 123°
2026-05-05 20:13 38.59180 -121.42021 5887 ft 275 kts 122°
2026-05-05 20:13 38.58103 -121.39989 6664 ft 278 kts 121°
2026-05-05 20:14 38.57020 -121.37930 7370 ft 282 kts 121°
2026-05-05 20:14 38.55922 -121.35844 8121 ft 285 kts 121°
2026-05-05 20:14 38.54808 -121.33725 8866 ft 289 kts 120°
2026-05-05 20:14 38.53669 -121.31557 9359 ft 304 kts 120°
2026-05-05 20:15 38.52457 -121.29244 9668 ft 323 kts 120°
2026-05-05 20:15 38.51163 -121.26797 10054 ft 339 kts 120°
2026-05-05 20:15 38.49831 -121.24282 10702 ft 344 kts 120°
2026-05-05 20:15 38.48488 -121.21738 11399 ft 347 kts 120°
2026-05-05 20:16 38.47132 -121.19177 12084 ft 350 kts 120°
2026-05-05 20:16 38.45763 -121.16586 12764 ft 354 kts 120°
2026-05-05 20:16 38.44375 -121.13967 13457 ft 358 kts 120°
2026-05-05 20:16 38.42972 -121.11323 14104 ft 361 kts 120°
2026-05-05 20:17 38.41557 -121.08660 14707 ft 364 kts 120°
2026-05-05 20:17 38.40133 -121.05974 15314 ft 367 kts 120°
2026-05-05 20:17 38.38699 -121.03275 15888 ft 369 kts 120°
2026-05-05 20:17 38.37251 -121.00556 16468 ft 372 kts 119°
2026-05-05 20:18 38.35796 -120.97822 17032 ft 375 kts 119°
2026-05-05 20:18 38.34331 -120.95074 17579 ft 377 kts 119°
2026-05-05 20:18 38.32859 -120.92306 18126 ft 380 kts 119°
2026-05-05 20:18 38.31362 -120.89507 18622 ft 383 kts 119°
2026-05-05 20:19 38.29861 -120.86699 19086 ft 385 kts 119°
2026-05-05 20:19 38.28355 -120.83877 19545 ft 387 kts 119°
2026-05-05 20:19 38.26836 -120.81043 19997 ft 389 kts 119°
2026-05-05 20:19 38.25306 -120.78188 20439 ft 391 kts 119°
2026-05-05 20:20 38.23768 -120.75318 20859 ft 393 kts 119°
2026-05-05 20:20 38.22225 -120.72437 21289 ft 395 kts 119°
2026-05-05 20:20 38.20691 -120.69586 21702 ft 397 kts 119°
2026-05-05 20:20 38.19108 -120.66639 22114 ft 399 kts 119°
2026-05-05 20:21 38.17556 -120.63759 22487 ft 401 kts 119°
2026-05-05 20:21 38.15978 -120.60823 22864 ft 403 kts 119°
2026-05-05 20:21 38.14386 -120.57874 23249 ft 405 kts 119°
2026-05-05 20:21 38.12791 -120.54914 23610 ft 407 kts 119°
2026-05-05 20:22 38.11189 -120.51950 23928 ft 408 kts 119°
2026-05-05 20:22 38.09578 -120.48971 24242 ft 409 kts 118°
2026-05-05 20:22 38.07967 -120.45992 24535 ft 411 kts 118°
2026-05-05 20:22 38.06346 -120.43010 24906 ft 410 kts 118°
2026-05-05 20:23 38.04728 -120.40046 25311 ft 407 kts 118°
2026-05-05 20:23 38.03119 -120.37109 25721 ft 405 kts 118°
2026-05-05 20:23 38.01510 -120.34196 26137 ft 402 kts 118°
2026-05-05 20:23 37.99901 -120.31307 26558 ft 400 kts 118°
2026-05-05 20:24 37.98295 -120.28439 26942 ft 397 kts 117°
2026-05-05 20:24 37.96702 -120.25591 27324 ft 395 kts 117°
2026-05-05 20:24 37.94990 -120.22857 27670 ft 403 kts 128°
2026-05-05 20:24 37.92825 -120.20540 27910 ft 410 kts 134°
2026-05-05 20:25 37.90497 -120.18433 28281 ft 413 kts 139°
2026-05-05 20:25 37.88022 -120.16564 28657 ft 416 kts 141°
2026-05-05 20:25 37.85494 -120.14787 28976 ft 416 kts 142°
2026-05-05 20:25 37.82968 -120.13018 29285 ft 414 kts 141°
2026-05-05 20:26 37.80476 -120.11205 29565 ft 412 kts 140°
2026-05-05 20:26 37.78022 -120.09362 29835 ft 411 kts 139°
2026-05-05 20:26 37.75561 -120.07527 30128 ft 410 kts 139°
2026-05-05 20:26 37.73103 -120.05698 30336 ft 410 kts 139°
2026-05-05 20:27 37.70627 -120.03855 30350 ft 416 kts 140°
2026-05-05 20:27 37.65578 -120.00106 30352 ft 426 kts 140°
2026-05-05 20:28 37.60408 -119.96274 30359 ft 436 kts 140°
2026-05-05 20:28 37.55128 -119.92372 30525 ft 441 kts 140°
2026-05-05 20:28 37.52484 -119.90419 30711 ft 441 kts 140°
2026-05-05 20:29 37.49839 -119.88467 30876 ft 441 kts 140°
2026-05-05 20:29 37.47188 -119.86513 31060 ft 441 kts 140°
2026-05-05 20:29 37.44544 -119.84562 31215 ft 441 kts 140°
2026-05-05 20:29 37.41893 -119.82610 31369 ft 441 kts 140°
2026-05-05 20:30 37.39246 -119.80662 31530 ft 441 kts 140°
2026-05-05 20:30 37.36597 -119.78713 31702 ft 441 kts 140°
2026-05-05 20:30 37.33969 -119.76783 31732 ft 445 kts 140°
2026-05-05 20:30 37.31262 -119.74791 31851 ft 446 kts 140°
2026-05-05 20:31 37.28604 -119.72847 32318 ft 437 kts 140°
2026-05-05 20:31 37.26034 -119.70966 32779 ft 430 kts 140°
2026-05-05 20:31 37.23463 -119.69081 32984 ft 428 kts 140°
2026-05-05 20:31 37.20856 -119.67174 33131 ft 427 kts 140°
2026-05-05 20:32 37.18294 -119.65300 33268 ft 427 kts 140°
2026-05-05 20:32 37.15150 -119.63013 33425 ft 428 kts 141°
2026-05-05 20:32 37.12354 -119.61557 33532 ft 445 kts 156°
2026-05-05 20:33 37.09347 -119.60719 33687 ft 450 kts 160°
2026-05-05 20:33 37.03137 -119.59475 33824 ft 458 kts 168°
2026-05-05 20:33 36.99925 -119.59404 34017 ft 463 kts 174°
2026-05-05 20:34 36.98839 -119.59451 34122 ft 462 kts 175°
2026-05-05 20:34 36.97658 -119.59516 34223 ft 460 kts 175°
2026-05-05 20:34 36.94679 -119.59699 34475 ft 455 kts 175°
2026-05-05 20:34 36.91539 -119.59864 34753 ft 449 kts 175°
2026-05-05 20:35 36.88430 -119.59942 34908 ft 446 kts 173°
2026-05-05 20:35 36.82232 -119.59990 35032 ft 444 kts 174°
2026-05-05 20:36 36.76063 -119.60104 35048 ft 443 kts 174°
2026-05-05 20:36 36.69925 -119.60219 35048 ft 440 kts 174°
2026-05-05 20:37 36.63815 -119.60315 35050 ft 438 kts 174°
2026-05-05 20:37 36.57741 -119.60424 35048 ft 436 kts 174°
2026-05-05 20:38 36.51695 -119.60526 35076 ft 434 kts 174°
2026-05-05 20:38 36.45667 -119.60629 35069 ft 432 kts 174°
2026-05-05 20:39 36.39672 -119.60734 35072 ft 430 kts 174°
2026-05-05 20:39 36.33705 -119.60835 35074 ft 428 kts 174°
2026-05-05 20:40 36.27767 -119.60936 35071 ft 425 kts 174°
2026-05-05 20:40 36.21863 -119.61037 35072 ft 423 kts 175°
2026-05-05 20:41 36.15999 -119.61137 35069 ft 421 kts 175°
2026-05-05 20:41 36.10141 -119.61238 35067 ft 419 kts 175°
2026-05-05 20:42 36.04316 -119.61337 35073 ft 418 kts 175°
2026-05-05 20:42 35.98506 -119.61488 35058 ft 419 kts 181°
2026-05-05 20:42 35.95667 -119.62102 35061 ft 423 kts 192°
2026-05-05 20:43 35.92827 -119.63247 35064 ft 424 kts 197°
2026-05-05 20:43 35.87320 -119.65624 35054 ft 420 kts 193°
2026-05-05 20:44 35.81678 -119.67598 35055 ft 418 kts 193°
2026-05-05 20:44 35.76135 -119.69689 35051 ft 416 kts 194°
2026-05-05 20:45 35.67903 -119.72800 35055 ft 412 kts 193°
2026-05-05 20:45 35.62323 -119.74429 35059 ft 408 kts 185°
2026-05-05 20:46 35.56702 -119.75600 35065 ft 413 kts 188°
2026-05-05 20:46 35.51036 -119.77064 35064 ft 419 kts 189°
2026-05-05 20:47 35.45290 -119.78476 35079 ft 424 kts 188°
2026-05-05 20:47 35.39497 -119.79882 35100 ft 430 kts 188°
2026-05-05 20:48 35.33546 -119.81313 34977 ft 439 kts 186°
2026-05-05 20:48 35.30540 -119.81444 34563 ft 438 kts 168°
2026-05-05 20:48 35.27624 -119.80484 34168 ft 434 kts 151°
2026-05-05 20:49 35.24937 -119.78825 33722 ft 432 kts 142°
2026-05-05 20:49 35.22483 -119.76742 33255 ft 429 kts 135°
2026-05-05 20:49 35.20160 -119.74433 32786 ft 431 kts 134°
2026-05-05 20:49 35.17847 -119.72084 32330 ft 435 kts 134°
2026-05-05 20:50 35.15466 -119.69760 31874 ft 440 kts 136°
2026-05-05 20:50 35.13821 -119.68226 31557 ft 443 kts 136°
2026-05-05 20:50 35.10550 -119.65191 30954 ft 448 kts 136°
2026-05-05 20:50 35.08062 -119.62875 30499 ft 452 kts 136°
2026-05-05 20:51 35.05554 -119.60545 30031 ft 453 kts 136°
2026-05-05 20:51 35.03052 -119.58215 29498 ft 453 kts 136°
2026-05-05 20:51 35.00544 -119.55884 28993 ft 451 kts 136°
2026-05-05 20:51 34.98084 -119.53610 29019 ft 439 kts 136°
2026-05-05 20:52 34.94083 -119.49901 29022 ft 424 kts 136°
2026-05-05 20:52 34.90968 -119.47012 28768 ft 432 kts 137°
2026-05-05 20:52 34.89322 -119.45531 28399 ft 440 kts 139°
2026-05-05 20:53 34.86826 -119.43329 27869 ft 448 kts 139°
2026-05-05 20:53 34.84303 -119.41078 27329 ft 451 kts 139°
2026-05-05 20:53 34.81811 -119.38851 26807 ft 451 kts 140°
2026-05-05 20:53 34.79281 -119.36592 26283 ft 449 kts 140°
2026-05-05 20:54 34.76827 -119.34393 26304 ft 430 kts 140°
2026-05-05 20:54 34.74426 -119.32247 26064 ft 430 kts 141°
2026-05-05 20:54 34.71970 -119.30110 25541 ft 436 kts 142°
2026-05-05 20:54 34.69495 -119.27961 25038 ft 438 kts 142°
2026-05-05 20:55 34.67022 -119.25798 24541 ft 438 kts 142°
2026-05-05 20:55 34.64557 -119.23638 24064 ft 435 kts 142°
2026-05-05 20:55 34.62060 -119.21500 23575 ft 433 kts 143°
2026-05-05 20:55 34.59604 -119.19387 23005 ft 430 kts 143°
2026-05-05 20:56 34.57176 -119.17297 22433 ft 422 kts 143°
2026-05-05 20:56 34.54823 -119.15269 21903 ft 410 kts 143°
2026-05-05 20:56 34.52570 -119.13318 21409 ft 403 kts 143°
2026-05-05 20:56 34.50428 -119.11453 20945 ft 398 kts 142°
2026-05-05 20:57 34.48194 -119.09476 20453 ft 395 kts 143°
2026-05-05 20:57 34.45976 -119.07517 19957 ft 392 kts 143°
2026-05-05 20:57 34.43780 -119.05577 19504 ft 389 kts 143°
2026-05-05 20:57 34.41605 -119.03647 19061 ft 386 kts 143°
2026-05-05 20:58 34.39476 -119.01756 18627 ft 383 kts 143°
2026-05-05 20:58 34.37293 -118.99855 18163 ft 380 kts 144°
2026-05-05 20:58 34.35154 -118.98001 17670 ft 377 kts 144°
2026-05-05 20:58 34.33042 -118.96157 17195 ft 373 kts 144°
2026-05-05 20:59 34.30960 -118.94333 16728 ft 365 kts 144°
2026-05-05 20:59 34.28947 -118.92523 16269 ft 357 kts 143°
2026-05-05 20:59 34.27002 -118.90761 15835 ft 351 kts 143°
2026-05-05 20:59 34.25418 -118.89329 15525 ft 345 kts 143°
2026-05-05 21:00 34.23524 -118.87596 15154 ft 338 kts 143°
2026-05-05 21:00 34.21761 -118.85962 14804 ft 332 kts 143°
2026-05-05 21:00 34.20737 -118.85020 14585 ft 332 kts 143°
2026-05-05 21:00 34.18982 -118.83409 14221 ft 332 kts 143°
2026-05-05 21:01 34.17158 -118.81738 13829 ft 326 kts 143°
2026-05-05 21:01 34.15419 -118.80076 13418 ft 323 kts 139°
2026-05-05 21:01 34.13755 -118.78251 12999 ft 322 kts 136°
2026-05-05 21:01 34.12147 -118.76418 12584 ft 314 kts 136°
2026-05-05 21:02 34.10688 -118.74760 12215 ft 306 kts 136°
2026-05-05 21:02 34.09810 -118.73765 11991 ft 302 kts 136°
2026-05-05 21:02 34.08274 -118.72071 11629 ft 295 kts 137°
2026-05-05 21:02 34.06762 -118.70439 11285 ft 290 kts 137°
2026-05-05 21:03 34.05251 -118.68809 10944 ft 293 kts 137°
2026-05-05 21:03 34.03728 -118.67139 10606 ft 298 kts 132°
2026-05-05 21:03 34.02801 -118.65349 10303 ft 297 kts 105°
2026-05-05 21:03 34.02493 -118.63709 10089 ft 298 kts 95°
2026-05-05 21:04 34.02376 -118.62515 9928 ft 299 kts 93°
2026-05-05 21:04 34.02213 -118.60020 9555 ft 297 kts 91°
2026-05-05 21:04 34.02078 -118.57547 9175 ft 295 kts 91°
2026-05-05 21:04 34.01912 -118.55099 8837 ft 292 kts 92°
2026-05-05 21:05 34.01712 -118.52671 8476 ft 289 kts 94°
2026-05-05 21:05 34.01496 -118.50276 8109 ft 284 kts 94°
2026-05-05 21:05 34.01270 -118.47973 7762 ft 273 kts 94°
2026-05-05 21:05 34.01062 -118.45751 7431 ft 262 kts 90°
2026-05-05 21:06 34.01112 -118.44390 7240 ft 254 kts 79°
2026-05-05 21:06 34.01396 -118.42615 7084 ft 246 kts 73°
2026-05-05 21:06 34.01830 -118.40627 6937 ft 246 kts 73°
2026-05-05 21:06 34.02258 -118.38632 6701 ft 246 kts 74°
2026-05-05 21:07 34.02578 -118.36608 6393 ft 246 kts 79°
2026-05-05 21:07 34.02826 -118.34571 6062 ft 246 kts 81°
2026-05-05 21:07 34.03058 -118.32552 5755 ft 238 kts 81°
2026-05-05 21:07 34.03283 -118.30599 5400 ft 233 kts 81°
2026-05-05 21:08 34.03509 -118.28695 5028 ft 225 kts 81°
2026-05-05 21:08 34.03735 -118.26853 4646 ft 220 kts 81°
2026-05-05 21:08 34.03969 -118.25039 4247 ft 218 kts 81°
2026-05-05 21:08 34.04210 -118.23241 3857 ft 217 kts 81°
2026-05-05 21:09 34.04289 -118.21449 3460 ft 213 kts 105°
2026-05-05 21:09 34.03481 -118.20051 3054 ft 202 kts 150°
2026-05-05 21:09 34.02191 -118.19760 2797 ft 185 kts 196°
2026-05-05 21:09 34.01195 -118.20584 2696 ft 171 kts 226°
2026-05-05 21:10 34.00402 -118.21593 2637 ft 162 kts 229°
2026-05-05 21:10 33.99673 -118.22569 2615 ft 150 kts 230°
2026-05-05 21:10 33.99019 -118.23485 2585 ft 139 kts 231°
2026-05-05 21:10 33.98379 -118.24407 2593 ft 148 kts 231°
2026-05-05 21:11 33.97701 -118.25390 2599 ft 155 kts 232°
2026-05-05 21:11 33.97022 -118.26393 2608 ft 152 kts 235°
2026-05-05 21:11 33.96702 -118.27501 2606 ft 136 kts 256°
2026-05-05 21:11 33.96505 -118.28677 2297 ft 144 kts 257°
2026-05-05 21:12 33.96343 -118.29808 2143 ft 133 kts 259°
2026-05-05 21:12 33.96219 -118.30915 1930 ft 135 kts 260°
2026-05-05 21:12 33.96104 -118.32049 1683 ft 140 kts 261°
2026-05-05 21:12 33.95976 -118.33204 1438 ft 137 kts 259°
2026-05-05 21:13 33.95817 -118.34331 1175 ft 137 kts 258°
2026-05-05 21:13 33.95689 -118.35457 920 ft 134 kts 261°
2026-05-05 21:13 33.95574 -118.36569 732 ft 136 kts 262°
2026-05-05 21:13 33.95478 -118.37726 542 ft 140 kts 262°
2026-05-05 21:14 33.95359 -118.38858 366 ft 133 kts 262°
2026-05-05 21:14 33.95248 -118.39935 192 ft 127 kts 261°
2026-05-05 21:14 33.95139 -118.40925 105 ft 105 kts 262°
2026-05-05 21:14 33.95063 -118.41616 106 ft 65 kts 263°
2026-05-05 21:15 33.95018 -118.42111 105 ft 54 kts 264°
2026-05-05 21:15 33.94948 -118.42511 105 ft 37 kts 243°
2026-05-05 21:15 33.94855 -118.42685 102 ft 7 kts 216°
2026-05-05 21:15 33.94852 -118.42688 102 ft 0 kts 216°
2026-05-05 21:16 33.94838 -118.42700 103 ft 4 kts 216°
2026-05-05 21:16 33.94798 -118.42731 104 ft 10 kts 204°
2026-05-05 21:17 33.94705 -118.42768 105 ft 20 kts 193°
2026-05-05 21:17 33.94535 -118.42762 96 ft 27 kts 175°
2026-05-05 21:17 33.94349 -118.42734 93 ft 27 kts 172°
2026-05-05 21:17 33.94162 -118.42703 93 ft 27 kts 172°
2026-05-05 21:18 33.93975 -118.42674 94 ft 27 kts 173°
2026-05-05 21:18 33.93789 -118.42650 93 ft 27 kts 175°
2026-05-05 21:18 33.93634 -118.42608 95 ft 21 kts 130°
2026-05-05 21:18 33.93630 -118.42433 95 ft 25 kts 82°
2026-05-05 21:19 33.93650 -118.42237 102 ft 22 kts 84°
2026-05-05 21:19 33.93667 -118.42051 103 ft 22 kts 84°
2026-05-05 21:19 33.93683 -118.41862 103 ft 23 kts 84°
2026-05-05 21:19 33.93699 -118.41698 104 ft 23 kts 83°
2026-05-05 21:20 33.93718 -118.41506 102 ft 25 kts 83°
2026-05-05 21:20 33.93738 -118.41300 102 ft 25 kts 81°
2026-05-05 21:20 33.93767 -118.41087 100 ft 27 kts 82°
2026-05-05 21:20 33.93790 -118.40864 100 ft 27 kts 83°
2026-05-05 21:21 33.93812 -118.40639 101 ft 27 kts 83°
2026-05-05 21:21 33.93834 -118.40412 102 ft 27 kts 83°
2026-05-05 21:21 33.93855 -118.40186 103 ft 27 kts 83°
2026-05-05 21:21 33.93879 -118.39958 103 ft 28 kts 82°
2026-05-05 21:22 33.93906 -118.39724 101 ft 25 kts 82°
2026-05-05 21:22 33.93944 -118.39546 99 ft 22 kts 37°
2026-05-05 21:22 33.94019 -118.39472 95 ft 11 kts 82°
2026-05-05 21:22 33.94030 -118.39384 97 ft 11 kts 67°
2026-05-05 21:23 33.94089 -118.39366 94 ft 8 kts 341°
2026-05-05 21:23 33.94114 -118.39377 94 ft 0 kts 339°